Location: Aalen
(48.8330°N, 10.1000°E)
Time: 16:17:01
(UTC+02:00)

UWE-3 - Pass Details

Date: 09 April 2023
Orbit: 576 x 669 km, 97.7° (Epoch: 02 June)

Event Time Altitude Azimuth Distance (km) Brightness Sun altitude
Rises 02:49:36 0° 34° (NNE) 2,926 ? -30.5°
Reaches altitude 10° 02:54:10 10° 78° (ENE) 1,977 ? -30.2°
Maximum altitude 02:54:41 10° 85° (E) 1,961 ? -30.1°
Drops below altitude 10° 02:55:11 10° 92° (E) 1,968 ? -30.1°
Enters shadow 02:55:44 - 99° (E) 2,003 ? -30.1°
